Regional Weather Roundup
Issued by NWS

Home | Current Version | Previous Version | Text Only | Print | Product List | Glossary Off
Versions: 1 2 3 4 5 6 7 8 9 10 11 12 13 14 15 16 17 18 19 20 21 22 23 24 25 26 27 28 29 30 31 32 33 34 35 36 37 38 39 40 41 42 43 44 45 46 47 48 49 50

000
ASUS43 KLMK 130602
RWRKY
KENTUCKY REGIONAL WEATHER ROUNDUP
NATIONAL WEATHER SERVICE LOUISVILLE KY
200 AM EDT SUN JUL 13 2014

NOTE "FAIR" INDICATES FEW OR NO CLOUDS BELOW 12,000 FEET
WITH NO SIGNIFICANT WEATHER AND/OR OBSTRUCTIONS TO VISIBILITY.

KYZ001>023-026-027-061>063-070>075-130700-
WESTERN AND SOUTH CENTRAL KENTUCKY

CITY           SKY/WX    TMP DP  RH WIND       PRES   REMARKS
PADUCAH        CLEAR     80  72  76 SW7       30.05F
HENDERSON      PTCLDY    75  70  83 SW5       30.04R
OWENSBORO      MOCLDY    76  72  87 SW3       30.05S
HOPKINSVILLE   NOT AVBL
BOWLING GREEN  MOCLDY    78  66  66 SW3       30.09S
GLASGOW        NOT AVBL
$$

KYZ024-025-028>034-038-045-046-053-130700-
NORTH CENTRAL KENTUCKY

CITY           SKY/WX    TMP DP  RH WIND       PRES   REMARKS
LOUISVILLE/SDF CLOUDY    82  67  60 S6        30.04F
LOUISVILLE/LOU MOCLDY    80  68  66 S5        30.05F
FORT KNOX      NOT AVBL
$$

KYZ035>037-039>044-047>052-055>060-089>105-130700-
NORTHEAST KENTUCKY

CITY           SKY/WX    TMP DP  RH WIND       PRES   REMARKS
LEXINGTON      CLOUDY    76  65  68 S6        30.09F
COVINGTON      CLOUDY    76  67  73 S7        30.05S
FRANKFORT      CLOUDY    75  66  73 S5        30.06F
$$

KYZ054-064>069-076>088-106>120-130700-
SOUTHEAST KENTUCKY

CITY           SKY/WX    TMP DP  RH WIND       PRES   REMARKS
JACKSON        MOCLDY    75  61  61 VRB3      30.12F
LONDON         PTCLDY    70  63  78 CALM      30.13F
SOMERSET       CLOUDY    72  63  73 CALM      30.12S
MIDDLESBORO    CLEAR     67  64  90 CALM      30.15S
MONTICELLO     PTCLDY    68  66  93 CALM      30.13S
$$



USA.gov is the U.S. government's official web portal to all federal, state and local government web resources and services.